星链-32047 (STARLINK-32047)

导读 | 豆包AI

STARLINK-32047是美国SpaceX公司星链(Starlink)星座的一员,于2024年10月15日发射升空。作为星链低轨宽带互联网星座的量产卫星,它继承了星链成熟设计,采用平板构型与氪工质霍尔推进器,可自主运行并实现自主避撞,寿命末期可主动离轨再入大气层焚毁。它将服务全球偏远地区,提供低延迟高速互联网接入,助力星链全球覆盖网络建设,推动卫星互联网服务普及。

Basic Information
目录编号:
61516
目录名称:
STARLINK-32047
国际标识:
2024-183H
轨道中心:
EARTH
卫星名称:
星链-32047
卫星全名:
星链-32047 (STARLINK-32047)
卫星状态:
在轨 (已飞行516 天)
发射日期:
2024-10-15 UTC
国别 :
美国 (US)
星等 :
--
Orbit Information
数据来源 国际轨道数据 AOE轨道数据
星历时间 2026-03-15T04:28:13+0800
16小时前
查看轨道信息
2026-03-14T08:00:00+0800
1天前
查看轨道信息
半长轴 6853.36km 6853.376km
偏心率 0.0001335 0.0001648
轨道倾角 53.160° 53.159°
近地点辐角 81.520° 87.490°
升交点赤经 118.409° 122.372°
平近点角 278.595° 251.435°
近地点 474.308km 474.109km
远地点 476.138km 476.369km
周期 94.106分钟 94.106分钟
每日圈数 15.301974 15.301922
Detailed Information
固有亮度:
5
最大亮度:
2.5
卫星平台:
Starlink V1.0
覆盖范围:
全球
运营商:
太空探索技术公司
运营商所在国:
美国
制造商(研发单位):
太空探索技术公司
制造商所在国:
美国
使用方式:
暂无
Satellite Introduction
Starlink 计划是 SpaceX 推出的全球卫星互联网项目,通过发射低轨道卫星,为全球尤其是偏远地区提供高速、低延迟的互联网服务。自 2019 年起,Starlink 已部署数千颗卫星,旨在缩小全球数字鸿沟,推动互联网普及。该项目还为军事、航空等行业提供通信支持,带来广泛经济效益。
2D Orbit Map
3D Orbit Map
Orbit Altitude Analysis Chart
Orbit Inclination Analysis Chart
Orbit Comprehensive Analysis Chart
View Comprehensive Chart